Showing default

GOES 16, 41866

Orbit data source: Space-Track

GOES 16, 41866 is a payload satellite owned by NOAA (US) in GEO that was launched on Sat, 19 Nov 2016 UTC via an ATLAS V 541 launch vehicle from the Air Force Eastern Test Range (AFETR). Payloads include a variety of satellites, spacecraft, and rockets equipped with specific instruments for various scientific and technological missions. These include communications satellites like Starlink; space stations such as the ISS; scientific satellites like the Hubble; Earth observation satellites from companies like Planet Labs, Umbra, and HawkEye 360; GPS; miniature CubeSats for education and research; and military/defense satellites.

Loading next visibility...
GOES 16 details
Identifier
41866, 2016-071A
Orbit
GEO
Last TLE update1 day ago
Origin
Flag of USNOAA (US)
ManufacturerLMCSS
MissionOperational Civil Weather
Bus & MotorA2100, LEROS-1C
Mass5,192 kg wet, 2,857 kg dry
Launch date (UTC)
2016-11-19 (8 years ago)
Launch vehicle
ATLAS V 541
Launch site
Air Force Eastern Test Range (AFETR)
Object type
Payload
Rocket body
Debris
Shape & HBRBox + 1 Pan + 1 Rod, 12 m
Radar Cross Section37.561 m², Large (>1 m²)

Expand to show TLE details & history

TLE from 1 day ago
0 GOES 16
1 41866U 16071A   24347.79368414 -.00000233  00000-0  00000-0 0  9991
2 41866   0.0358 240.0227 0001411  65.0428 347.4517  1.00271516 29579
Epoch: 2024-12-12T19:02Z
Definitive object data (Epoch: 2024-12-12T19:02:54.309Z)
Latitude0.00977°
Longitude-75.19446°
Altitude35,780.351 km
Speed3.075 km/s
True Right ascension19h 30m 00s
True Declination0° 00' 35"
Sunlit
Object was in daylight at TLE epoch
Visualization TLE readout
Latitude0.02508°
Longitude-24.90789°
Altitude35,781.572 km
Speed3.075 km/s
Apparent Right ascension23h 05m 54s
Apparent Declination-6° 05' 17"
Sunlit
Object is in daylight
Visualization observer readout
Local Sidereal Time20:51:23
Azimuth138.047° SSE
Elevation34.539°
Doppler factor1
Orbital elements
Apogee altitude35,793.69 km
Perigee altitude35,781.791 km
Semi-major axis42,165.878 km
Eccentricity0.0001411
Inclination0.0358°
RAAN240.0227°
Arg. of periapsis65.0428°
True anomaly347.44819°
Mean anomaly347.4517°
Eccentric anomaly347.44994°
Mean motion0.25067 °/min
BSTARUnknown
Orbital period1436.15 mins
Loading historical data...
41866 neighbors
Authenticating...
Loading maneuver chart data...
Loading historical data...
Loading historical data...
Loading historical data...
Loading historical data...
Loading historical data...
Loading historical data...
Loading historical data...
Other satellites on launch #71 in the year 2016 (2016-11-19 UTC)

GOES 16 Visibility forecast

Observer location: undefined°, undefined

Span
Click to sort rows by Start time (UTC) header in descending order
Start Az.
Max El. time (UTC)
Max El. Az.
Max El.
End time (UTC)
End Az.
1440 mins2024-12-13 22:19:30.458Z138.06° SSE2024-12-14 01:25:30.458Z138.05° SSE29.545°2024-12-14 22:19:30.458Z138.062° SSE
|